Lancaster, PA

10:17 PM EDT on April 23, 2017 (GMT -0400)
Lancaster

Weather History for KLNS - July, 2014

Change the Weather History Date:

Tuesday, July 29, 2014

  Actual Average Record
Temperature  
Mean Temperature 62 °F -  
Max Temperature 71 °F 84 °F 96 °F (2002)
Min Temperature 55 °F 63 °F 55 °F (1984)
Degree Days  
Heating Degree Days 2    
Growing Degree Days 12 (Base 50)    
Moisture  
Dew Point 55 °F    
Average Humidity 74    
Maximum Humidity 93    
Minimum Humidity 57    
Precipitation  
Precipitation 0.00 in - - ()
Sea Level Pressure  
Sea Level Pressure 29.92 in    
Wind  
Wind Speed 6 mph (WNW)    
Max Wind Speed 10 mph    
Max Gust Speed -    
Visibility 10 miles    
Events      
Averages and records for this station are not official NWS values.
T = Trace of Precipitation, MM = Missing Value Source: NWS Daily Summary

Daily Weather History Graph

Daily Weather History Graph

Search for Another Location

Airport or City:

Trip Planner

Search our weather history database for the weather conditions in past years. The results will help you decide how hot, cold, wet, or windy it might be!

Date:

Astronomy

Jul. 29, 2014 Rise Set
Actual Time 6:00 AM EDT 8:22 PM EDT
Civil Twilight 5:29 AM EDT 8:52 PM EDT
Nautical Twilight 4:51 AM EDT 9:30 PM EDT
Astronomical Twilight 4:09 AM EDT 10:12 PM EDT
Moon 8:35 AM EDT (7/29) 9:33 PM EDT (7/29)
Length of Visible Light 15h 22m
Length of Day
14h 21m
Waxing Crescent, 7% of the Moon is Illuminated
Jul 29
Waxing Crescent
Aug 3
First Quarter
Aug 10
Full
Aug 17
Last Quarter
Aug 25
New

Hourly Weather History & Observations

Time (EDT) Temp. Dew Point Humidity Pressure Visibility Wind Dir Wind Speed Gust Speed Precip Events Conditions
12:53 AM 62.1 °F 57.9 °F 86% 29.81 in 10.0 mi WNW 9.2 mph - N/A   Clear
1:53 AM 61.0 °F 57.0 °F 87% 29.82 in 10.0 mi WNW 4.6 mph - N/A   Clear
2:53 AM 60.1 °F 55.0 °F 83% 29.83 in 10.0 mi WNW 6.9 mph - N/A   Clear
3:53 AM 59.0 °F 55.0 °F 87% 29.84 in 10.0 mi West 4.6 mph - N/A   Clear
4:53 AM 57.9 °F 55.0 °F 90% 29.85 in 10.0 mi WSW 3.5 mph - N/A   Clear
5:53 AM 55.9 °F 54.0 °F 93% 29.88 in 10.0 mi WNW 4.6 mph - N/A   Clear
6:53 AM 57.0 °F 55.0 °F 93% 29.88 in 10.0 mi WSW 3.5 mph - N/A   Clear
7:53 AM 61.0 °F 55.9 °F 83% 29.91 in 10.0 mi West 3.5 mph - N/A   Clear
8:53 AM 63.0 °F 57.0 °F 81% 29.92 in 10.0 mi WNW 6.9 mph - N/A   Clear
10:53 AM 68.0 °F 55.9 °F 65% 29.92 in 10.0 mi NW 10.4 mph - N/A   Scattered Clouds
11:53 AM 69.1 °F 55.9 °F 63% 29.91 in 10.0 mi NW 5.8 mph - N/A   Mostly Cloudy
12:53 PM 70.0 °F 55.9 °F 61% 29.92 in 10.0 mi NW 8.1 mph - N/A   Overcast
1:53 PM 70.0 °F 55.0 °F 59% 29.91 in 10.0 mi West 5.8 mph - N/A   Overcast
2:53 PM 68.0 °F 54.0 °F 61% 29.92 in 10.0 mi NNW 10.4 mph - N/A   Overcast
4:53 PM 69.1 °F 54.0 °F 58% 29.94 in 10.0 mi NNW 8.1 mph - N/A   Overcast
5:53 PM 69.1 °F 53.1 °F 57% 29.95 in 10.0 mi NW 9.2 mph - N/A   Overcast
6:53 PM 70.0 °F 54.0 °F 57% 29.97 in 10.0 mi NNW 5.8 mph - N/A   Overcast
7:53 PM 66.0 °F 53.1 °F 63% 29.98 in 10.0 mi NNW 5.8 mph - N/A   Overcast
8:53 PM 64.9 °F 54.0 °F 68% 29.99 in 10.0 mi NW 5.8 mph - N/A   Overcast
9:53 PM 63.0 °F 55.0 °F 75% 30.00 in 10.0 mi WNW 4.6 mph - N/A   Overcast
10:53 PM 62.1 °F 55.0 °F 78% 30.01 in 10.0 mi NW 3.5 mph - N/A   Overcast
11:53 PM 59.0 °F 53.1 °F 81% 30.01 in 10.0 mi West 4.6 mph - N/A   Clear